Location: Altoona
(40.5167°N, 78.4000°W)
Time: 18:22:12
(UTC-04:00)

Landsat 7 - Pass Details

Date: 21 August 2017
Orbit: 702 x 703 km, 98.2° (Epoch: 22 September)

Event Time Altitude Azimuth Distance (km) Brightness Sun altitude
Exits shadow 23:01:32 55° 347° (NNW) 846 4.4 -29.1°
Drops below altitude 10° 23:05:15 10° 347° (NNW) 2,177 7.1 -29.6°
Sets 23:07:31 0° 348° (NNW) 3,100 8.1 -29.8°
